Date String (YYYY-MM-DD hh:mm:ss) UTC,Instrument flags,Ambient pressure (hPa),Sample flow (lpm),Bypass flow (lpm),Sample temperature (°C),Ambient temperature (°C),ASC tube jacket temperature (°C),LED temperature (°C),Box temperature (°C),Sample RH (%),Span deviation,Mass concentration (μg/m³),Mass concentration (μg/m³),Mass concentration (μg/m³)
DateTimeUTC,F1_M11,P_M11,Q1_M11,Q2_M11,T1_M11,T2_M11,T3_M11,T4_M11,T5_M11,U1_M11,ZSPAN_M11,X0_M11,X2_M11,X1_M11
2021-12-03 04:00:00,,0826.2,5.01,0.00,30.3,29.3,00.0,39.3,32.0,08.1,0000.0,0000.29,0000.20,0000.14
2021-12-03 04:01:00,,0826.3,5.00,0.00,30.3,29.3,00.0,39.3,32.0,08.0,0000.0,0000.31,0000.20,0000.14
2021-12-03 04:02:00,,0826.2,5.00,0.00,30.3,29.3,00.0,39.3,32.0,07.8,0000.0,0000.46,0000.24,0000.16
2021-12-03 04:03:00,,0826.2,4.99,0.00,30.3,29.3,00.0,39.3,32.0,07.8,0000.0,0001.13,0000.30,0000.19
2021-12-03 04:04:00,,0826.2,5.01,0.00,30.2,29.2,00.0,39.3,32.0,07.9,0000.0,0001.74,0000.42,0000.23
2021-12-03 04:05:00,,0826.2,5.00,0.00,30.2,29.2,00.0,39.3,31.9,07.9,0000.0,0002.03,0000.53,0000.28
2021-12-03 04:06:00,,0826.2,5.00,0.00,30.2,29.2,00.0,39.3,31.9,07.9,0000.0,0003.71,0000.68,0000.33
2021-12-03 04:07:00,,0826.2,5.00,0.00,30.2,29.2,00.0,39.2,31.9,08.0,0000.0,0004.46,0000.81,0000.37
2021-12-03 04:08:00,,0826.2,5.00,0.00,30.1,29.2,00.0,39.2,31.9,08.0,0000.0,0005.32,0000.95,0000.42
2021-12-03 04:09:00,,0826.2,5.00,0.00,30.1,29.2,00.0,39.2,31.9,08.0,0000.0,0007.32,0001.13,0000.48
2021-12-03 04:10:00,,0826.2,5.00,0.00,30.1,29.2,00.0,39.2,31.9,08.0,0000.0,0008.99,0001.29,0000.53
2021-12-03 04:11:00,,0826.2,4.99,0.00,30.1,29.2,00.0,39.2,31.8,08.0,0000.0,0009.27,0001.39,0000.56
2021-12-03 04:12:00,,0826.2,5.01,0.00,30.2,29.2,00.0,39.2,31.9,08.1,0000.0,0009.87,0001.45,0000.59
2021-12-03 04:13:00,,0826.2,5.01,0.00,30.2,29.2,00.0,39.2,31.9,08.1,0000.0,0009.97,0001.46,0000.60
2021-12-03 04:14:00,,0826.2,5.00,0.00,30.2,29.2,00.0,39.2,31.9,08.1,0000.0,0009.80,0001.49,0000.62
2021-12-03 04:15:00,,0826.2,4.98,0.00,30.1,29.2,00.0,39.2,31.9,08.0,0000.0,0009.95,0001.52,0000.62
2021-12-03 04:16:00,,0826.2,5.02,0.00,30.1,29.2,00.0,39.2,31.8,08.1,0000.0,0010.31,0001.52,0000.61
2021-12-03 04:17:00,,0826.2,4.99,0.00,30.1,29.2,00.0,39.2,31.8,08.0,0000.0,0010.10,0001.44,0000.60
2021-12-03 04:18:00,,0826.2,5.01,0.00,30.1,29.2,00.0,39.2,31.9,08.1,0000.0,0010.31,0001.41,0000.60
2021-12-03 04:19:00,,0826.2,5.01,0.00,30.1,29.2,00.0,39.2,31.9,08.1,0000.0,0009.89,0001.35,0000.58
2021-12-03 04:20:00,,0826.4,5.00,0.00,30.2,29.3,00.0,39.2,31.9,08.2,0000.0,0008.77,0001.27,0000.55
2021-12-03 04:21:00,,0826.3,5.00,0.00,30.2,29.3,00.0,39.2,31.9,08.2,0000.0,0007.38,0001.18,0000.52
2021-12-03 04:22:00,,0826.3,4.99,0.00,30.2,29.3,00.0,39.2,31.9,08.2,0000.0,0007.01,0001.11,0000.49
2021-12-03 04:23:00,,0826.3,5.02,0.00,30.2,29.3,00.0,39.2,31.9,08.2,0000.0,0005.92,0001.07,0000.47
2021-12-03 04:24:00,,0826.3,4.98,0.00,30.2,29.3,00.0,39.2,31.9,08.3,0000.0,0005.58,0001.03,0000.45
2021-12-03 04:25:00,,0826.3,5.01,0.00,30.2,29.3,00.0,39.2,31.9,08.2,0000.0,0005.60,0000.96,0000.41
2021-12-03 04:26:00,,0826.3,5.01,0.00,30.2,29.4,00.0,39.2,31.9,08.2,0000.0,0005.62,0000.84,0000.37
2021-12-03 04:27:00,,0826.3,4.99,0.00,30.2,29.4,00.0,39.2,31.9,08.2,0000.0,0004.45,0000.71,0000.33
2021-12-03 04:28:00,,0826.3,5.00,0.00,30.2,29.4,00.0,39.2,31.9,08.1,0000.0,0003.44,0000.65,0000.29
2021-12-03 04:29:00,,0826.3,5.00,0.00,30.2,29.4,00.0,39.2,31.9,08.1,0000.0,0002.07,0000.54,0000.25
2021-12-03 04:30:00,,0826.3,5.00,0.00,30.3,29.4,00.0,39.2,31.9,08.1,0000.0,0001.92,0000.48,0000.22
2021-12-03 04:31:00,,0826.3,4.99,0.00,30.3,29.4,00.0,39.2,32.0,08.1,0000.0,0001.72,0000.38,0000.20
2021-12-03 04:32:00,,0826.2,5.02,0.00,30.2,29.4,00.0,39.2,32.0,08.1,0000.0,0001.55,0000.32,0000.18
2021-12-03 04:33:00,,0826.3,5.00,0.00,30.3,29.3,00.0,39.2,31.9,08.1,0000.0,0001.45,0000.28,0000.16
2021-12-03 04:34:00,,0826.2,4.99,0.00,30.3,29.3,00.0,39.2,31.9,08.1,0000.0,0001.40,0000.26,0000.15
2021-12-03 04:35:00,,0826.2,5.00,0.00,30.3,29.3,00.0,39.2,32.0,08.1,0000.0,0001.39,0000.25,0000.15
2021-12-03 04:36:00,,0826.2,5.01,0.00,30.3,29.3,00.0,39.2,32.0,08.2,0000.0,0001.08,0000.24,0000.14
2021-12-03 04:37:00,,0826.2,4.99,0.00,30.3,29.3,00.0,39.2,32.0,08.2,0000.0,0000.43,0000.24,0000.14
2021-12-03 04:38:00,,0826.2,4.99,0.00,30.3,29.3,00.0,39.2,32.0,08.1,0000.0,0000.41,0000.23,0000.14
2021-12-03 04:39:00,,0826.2,5.01,0.00,30.3,29.3,00.0,39.3,32.0,08.2,0000.0,0000.38,0000.21,0000.13
2021-12-03 04:40:00,,0826.2,4.98,0.00,30.3,29.3,00.0,39.3,31.9,08.2,0000.0,0000.45,0000.21,0000.14
2021-12-03 04:41:00,,0826.2,4.99,0.00,30.3,29.3,00.0,39.3,31.9,08.2,0000.0,0000.47,0000.22,0000.14
2021-12-03 04:42:00,,0826.2,5.01,0.00,30.3,29.3,00.0,39.3,31.9,08.2,0000.0,0000.49,0000.24,0000.15
2021-12-03 04:43:00,,0826.2,5.01,0.00,30.3,29.3,00.0,39.3,31.9,08.2,0000.0,0000.48,0000.24,0000.14
2021-12-03 04:44:00,,0826.2,5.00,0.00,30.3,29.3,00.0,39.3,31.9,08.2,0000.0,0000.48,0000.23,0000.14
2021-12-03 04:45:00,,0826.2,5.00,0.00,30.3,29.2,00.0,39.3,31.9,08.2,0000.0,0000.51,0000.24,0000.14
2021-12-03 04:46:00,,0826.2,5.00,0.00,30.3,29.3,00.0,39.3,31.9,08.2,0000.0,0000.57,0000.26,0000.14
2021-12-03 04:47:00,,0826.2,5.01,0.00,30.3,29.3,00.0,39.3,31.9,08.3,0000.0,0000.62,0000.28,0000.14
2021-12-03 04:48:00,,0826.2,4.97,0.00,30.3,29.3,00.0,39.3,32.0,08.3,0000.0,0000.57,0000.26,0000.14
2021-12-03 04:49:00,,0826.2,5.01,0.00,30.3,29.3,00.0,39.3,31.9,08.3,0000.0,0000.62,0000.26,0000.14
2021-12-03 04:50:00,,0826.2,5.01,0.00,30.3,29.3,00.0,39.3,32.0,08.2,0000.0,0000.72,0000.27,0000.14
2021-12-03 04:51:00,,0826.2,5.00,0.00,30.3,29.3,00.0,39.3,32.0,08.2,0000.0,0000.67,0000.28,0000.15
2021-12-03 04:52:00,,0826.2,4.98,0.00,30.2,29.2,00.0,39.3,31.9,08.2,0000.0,0000.71,0000.29,0000.15
2021-12-03 04:53:00,,0826.2,5.02,0.00,30.2,29.2,00.0,39.3,31.8,08.2,0000.0,0000.69,0000.27,0000.15
2021-12-03 04:54:00,,0826.2,4.99,0.00,30.2,29.2,00.0,39.3,31.8,08.3,0000.0,0000.68,0000.27,0000.14
2021-12-03 04:55:00,,0826.2,5.02,0.00,30.2,29.2,00.0,39.3,31.8,08.3,0000.0,0000.67,0000.27,0000.15
2021-12-03 04:56:00,,0826.2,4.98,0.00,30.2,29.1,00.0,39.3,31.7,08.3,0000.0,0000.72,0000.29,0000.15
2021-12-03 04:57:00,,0826.2,5.01,0.00,30.2,29.2,00.0,39.3,31.7,08.3,0000.0,0001.16,0000.27,0000.15
2021-12-03 04:58:00,,0826.1,5.01,0.00,30.2,29.2,00.0,39.2,31.7,08.3,0000.0,0001.21,0000.26,0000.15
2021-12-03 04:59:00,,0826.2,4.99,0.00,30.2,29.2,00.0,39.2,31.8,08.3,0000.0,0001.22,0000.26,0000.15
